Weather History for Nan, Thailand

Change the Weather History Date:

Friday, November 16, 2012

  Actual Average Record
Temperature  
Mean Temperature 80 °F -  
Max Temperature 92 °F 85 °F - ()
Min Temperature 69 °F 61 °F - ()
Cooling Degree Days 16    
Growing Degree Days 30 (Base 50)    
Moisture  
Dew Point 69 °F    
Average Humidity 63    
Maximum Humidity 100    
Minimum Humidity 40    
Precipitation  
Precipitation 0.00 in 0.02 in - ()
Sea Level Pressure  
Sea Level Pressure 29.88 in    
Wind  
Wind Speed 1 mph ()    
Max Wind Speed 2 mph    
Max Gust Speed -    
Visibility 5.1 miles    
Events Fog    
T = Trace of Precipitation, MM = Missing Value Source: Averaged Metar Reports

Daily Weather History Graph

Daily Weather History Graph

Search for Another Location

Airport:

Trip Planner

Search our weather history database for the weather conditions in past years. The results will help you decide how hot, cold, wet, or windy it might be!

Date:

Astronomy

Nov. 16, 2012 Rise Set
Actual Time 6:24 AM ICT 5:38 PM ICT
Civil Twilight 6:01 AM ICT 6:01 PM ICT
Nautical Twilight 5:34 AM ICT 6:28 PM ICT
Astronomical Twilight 5:08 AM ICT 6:54 PM ICT
Moon 8:40 AM ICT (11/16) 8:08 PM ICT (11/16)
Length of Visible Light 12h 00m
Length of Day
11h 14m
Waxing Crescent, 8% of the Moon is Illuminated
Nov 16
Waxing Crescent
Nov 20
First Quarter
Nov 28
Full
Dec 6
Last Quarter
Dec 13
New

Hourly Weather History & Observations

Time (ICT) Temp. Heat Index Dew Point Humidity Pressure Visibility Wind Dir Wind Speed Gust Speed Precip Events Conditions
1:00 AM 74 °F - 71 °F 88% 29.91 in 6 mi Calm Calm - -  
7:00 AM 72 °F - 71 °F 94% 29.92 in 0 mi Calm Calm - - Fog Heavy Fog
7:00 AM 69.8 °F - 69.8 °F 100% 29.92 in 0.1 mi Variable 1.2 mph - N/A Fog Fog
8:00 AM 71.6 °F - 71.6 °F 100% 29.95 in 1.2 mi Variable 2.3 mph - N/A   Mostly Cloudy
9:00 AM 78.8 °F - 73.4 °F 83% 29.95 in 1.9 mi Variable 2.3 mph - N/A   Partly Cloudy
10:00 AM 84.2 °F 88.4 °F 69.8 °F 62% 29.95 in 4.3 mi Variable 2.3 mph - N/A   Partly Cloudy
11:00 AM 86.0 °F 89.4 °F 68.0 °F 55% 29.95 in 6.2 mi Variable 2.3 mph - N/A   Partly Cloudy
12:00 PM 89.6 °F 91.1 °F 64.4 °F 43% 29.92 in 6.2 mi Variable 2.3 mph - N/A   Scattered Clouds
1:00 PM 90 °F - 71 °F 44% 29.85 in 7 mi Calm Calm - -   Partly Cloudy
1:00 PM 89.6 °F 91.1 °F 64.4 °F 43% 29.86 in 6.2 mi Variable 2.3 mph - N/A   Mostly Cloudy
1:30 PM 89.6 °F 91.1 °F 64.4 °F 43% 29.86 in 6.2 mi Variable 2.3 mph - N/A   Mostly Cloudy
2:00 PM 91.4 °F 93.2 °F 64.4 °F 41% 29.83 in 6.2 mi Variable 2.3 mph - N/A   Mostly Cloudy
3:00 PM 91.4 °F 93.2 °F 64.4 °F 41% 29.83 in 6.2 mi Variable 2.3 mph - N/A   Mostly Cloudy
4:00 PM 89.6 °F 90.1 °F 62.6 °F 40% 29.80 in 6.2 mi Variable 2.3 mph - N/A   Mostly Cloudy
4:30 PM 89.6 °F 90.1 °F 62.6 °F 40% 29.80 in 6.2 mi Variable 2.3 mph - N/A   Mostly Cloudy
5:30 PM 86.0 °F 89.4 °F 68.0 °F 55% 29.83 in 6.2 mi Variable 2.3 mph - N/A   Mostly Cloudy
6:00 PM 80.6 °F 86.2 °F 75.2 °F 84% 29.83 in 6.2 mi Variable 2.3 mph - N/A   Mostly Cloudy
6:30 PM 89.6 °F 91.1 °F 64.4 °F 43% 29.83 in 6.2 mi Variable 2.3 mph - N/A   Mostly Cloudy
7:00 PM 82 °F - 73 °F 68% 29.85 in 7 mi Calm Calm - -   Clear
7:00 PM 77.0 °F - 77.0 °F 100% 29.89 in 6.2 mi Variable 2.3 mph - N/A   Mostly Cloudy